1512518401.13,33908,2.69,73168.8,-9.71,-10.49,-10.49,0,*5E
1512518402.33,33909,2.69,73180.0,-9.71,-10.49,-10.49,0,*5F
1512518403.56,33910,2.69,73208.0,-9.71,-10.41,-10.49,0,*5F
1512518404.79,33911,2.69,73214.5,-9.73,-10.45,-10.45,0,*54
1512518406.01,33912,2.69,73248.5,-9.73,-10.45,-10.53,0,*50
1512518407.24,33913,2.69,73262.3,-9.73,-10.45,-10.45,0,*56
1512518408.48,33914,2.69,73252.0,-9.71,-10.41,-10.35,0,*50
1512518409.74,33915,2.69,73226.0,-9.71,-10.41,-10.41,0,*52
1512518410.97,33916,2.69,73170.0,-9.67,-10.41,-10.49,0,*5E
1512518412.16,33917,2.69,73114.3,-9.71,-10.53,-10.53,0,*50
1512518413.36,33918,2.69,73144.0,-9.71,-10.53,-10.53,0,*5F
1512518414.59,33919,2.75,73166.8,-9.73,-10.57,-10.57,0,*5C
1512518415.82,33920,2.75,73176.8,-9.73,-10.57,-10.57,0,*56
1512518417.05,33921,2.69,73180.0,-9.73,-10.57,-10.57,0,*57
1512518418.28,33922,2.75,73220.0,-9.73,-10.57,-10.57,0,*54
1512518419.51,33923,2.69,73220.3,-9.73,-10.57,-10.57,0,*55
1512518420.74,33924,2.69,73228.5,-9.73,-10.57,-10.57,0,*52
1512518421.97,33925,2.75,73222.0,-9.73,-10.53,-10.57,0,*57
1512518423.2,33926,2.69,73208.0,-9.73,-10.57,-10.57,0,*50
1512518424.43,33927,2.69,73200.0,-9.73,-10.57,-10.57,0,*51
1512518425.63,33928,2.69,73188.5,-9.75,-10.57,-10.57,0,*58
1512518426.86,33929,2.69,73196.8,-9.73,-10.57,-10.53,0,*5B
1512518428.1,33930,2.69,73198.8,-9.73,-10.57,-10.57,0,*57
1512518429.32,33931,2.69,73194.0,-9.73,-10.53,-10.57,0,*52
1512518430.55,33932,2.69,73188.0,-9.73,-10.57,-10.57,0,*55
1512518431.78,33933,2.69,73150.5,-9.73,-10.57,-10.57,0,*54
1512518433.04,33934,2.75,73132.3,-9.73,-10.63,-10.57,0,*54
1512518434.25,33935,2.69,73088.5,-9.75,-10.57,-10.57,0,*54
1512518435.45,33936,2.75,73102.5,-9.75,-10.57,-10.57,0,*57
1512518436.68,33937,2.69,73154.5,-9.73,-10.57,-10.57,0,*50
1512518437.94,33938,2.69,73176.5,-9.73,-10.63,-10.57,0,*58
1512518439.2,33939,2.69,73162.8,-9.73,-10.63,-10.57,0,*59
1512518440.41,33940,2.69,73176.5,-9.75,-10.57,-10.57,0,*56
1512518441.61,33941,2.69,73186.3,-9.75,-10.57,-10.57,0,*57
1512518442.84,33942,2.69,73176.5,-9.73,-10.57,-10.57,0,*52
1512518444.05,33943,2.69,73124.0,-9.75,-10.57,-10.53,0,*51
1512518445.25,33944,2.69,73104.5,-9.75,-10.57,-10.57,0,*52
1512518446.48,33945,2.69,73108.0,-9.73,-10.57,-10.57,0,*55
1512518447.72,33946,2.69,73122.5,-9.73,-10.57,-10.57,0,*56
1512518448.92,33947,2.75,73124.0,-9.75,-10.57,-10.57,0,*51
1512518450.13,33948,2.69,73118.3,-9.75,-10.57,-10.57,0,*5E
1512518451.33,33949,2.69,73124.5,-9.75,-10.53,-10.57,0,*5B
1512518452.53,33950,2.69,73138.3,-9.75,-10.57,-10.53,0,*53
1512518453.74,33951,2.69,73154.0,-9.75,-10.53,-10.57,0,*52
1512518454.96,33952,2.69,73154.3,-9.73,-10.53,-10.57,0,*57
1512518456.17,33953,2.75,73182.0,-9.75,-10.57,-10.53,0,*50
1512518457.39,33954,2.75,73222.8,-9.73,-10.53,-10.53,0,*55
1512518458.61,33955,2.69,73218.5,-9.73,-10.53,-10.53,0,*54
1512518459.84,33956,2.69,73204.3,-9.73,-10.53,-10.53,0,*57
1512518461.04,33957,2.69,73202.5,-9.75,-10.57,-10.53,0,*54
1512518462.24,33958,2.69,73208.8,-9.75,-10.53,-10.53,0,*5F
1512518463.44,33959,2.69,73216.8,-9.75,-10.53,-10.53,0,*5E
1512518464.67,33960,2.69,73218.3,-9.73,-10.53,-10.57,0,*56
1512518465.87,33961,2.69,73212.3,-9.75,-10.53,-10.53,0,*55
1512518467.07,33962,2.69,73194.5,-9.75,-10.53,-10.53,0,*56
1512518468.3,33963,2.69,73174.5,-9.75,-10.53,-10.41,0,*54
1512518469.5,33964,2.69,73158.8,-9.75,-10.45,-10.45,0,*50
1512518470.7,33965,2.69,73140.5,-9.75,-10.53,-10.45,0,*56
1512518471.93,33966,2.69,73152.3,-9.73,-10.57,-10.53,0,*50
1512518473.16,33967,2.69,73156.3,-9.73,-10.53,-10.57,0,*51
1512518474.36,33968,2.69,73152.3,-9.75,-10.53,-10.45,0,*5B
1512518475.58,33969,2.69,73164.3,-9.73,-10.45,-10.45,0,*5B
1512518476.81,33970,2.69,73196.0,-9.73,-10.45,-10.53,0,*54
1512518478.07,33971,2.69,73208.5,-9.73,-10.45,-10.41,0,*56
1512518479.27,33972,2.69,73218.0,-9.75,-10.45,-10.45,0,*57
1512518480.5,33973,2.69,73220.0,-9.73,-10.45,-10.53,0,*57
1512518481.73,33974,2.69,73210.8,-9.73,-10.45,-10.45,0,*57
1512518482.96,33975,2.69,73196.0,-9.75,-10.45,-10.41,0,*54
1512518484.22,33976,2.69,73200.3,-9.73,-10.45,-10.41,0,*51
1512518485.47,33977,2.69,73206.8,-9.73,-10.45,-10.41,0,*50
1512518486.73,33978,2.69,73210.0,-9.73,-10.45,-10.41,0,*5F
1512518487.99,33979,2.69,73212.3,-9.73,-10.41,-10.45,0,*5E
1512518489.22,33980,2.69,73212.3,-9.73,-10.45,-10.45,0,*5C
1512518490.47,33981,2.69,73216.5,-9.73,-10.45,-10.41,0,*59
1512518491.7,33982,2.69,73206.0,-9.73,-10.53,-10.45,0,*59
1512518492.92,33983,2.69,73200.0,-9.73,-10.45,-10.45,0,*5F
1512518494.15,33984,2.69,73192.8,-9.73,-10.45,-10.45,0,*58
1512518495.38,33985,2.69,73184.0,-9.73,-10.45,-10.45,0,*59
1512518496.63,33986,2.69,73200.0,-9.73,-10.53,-10.41,0,*59
1512518497.86,33987,2.69,73202.3,-9.73,-10.53,-10.45,0,*5C
1512518499.11,33988,2.69,73198.0,-9.73,-10.41,-10.45,0,*50
1512518500.34,33989,2.69,73204.3,-9.73,-10.45,-10.45,0,*55
1512518501.6,33990,2.75,73210.0,-9.73,-10.45,-10.41,0,*59
1512518502.83,33991,2.69,73216.5,-9.73,-10.45,-10.45,0,*5C
1512518504.11,33992,2.69,73216.5,-9.73,-10.41,-10.41,0,*5F
1512518505.37,33993,2.69,73224.0,-9.73,-10.41,-10.45,0,*5A
1512518506.63,33994,2.69,73230.3,-9.73,-10.41,-10.45,0,*5D
1512518507.88,33995,2.69,73206.0,-9.73,-10.41,-10.45,0,*5C
1512518509.14,33996,2.69,73218.0,-9.73,-10.45,-10.41,0,*5F
1512518510.4,33997,2.75,73232.3,-9.73,-10.45,-10.41,0,*5E
1512518511.63,33998,2.69,73226.3,-9.73,-10.45,-10.45,0,*55
1512518512.89,33999,2.69,73220.8,-9.75,-10.41,-10.41,0,*52
1512518514.12,34000,2.69,73230.8,-9.73,-10.45,-10.45,0,*5A
1512518515.4,34001,2.69,73242.0,-9.73,-10.41,-10.41,0,*5B
1512518516.63,34002,2.69,73260.0,-9.73,-10.45,-10.45,0,*58
1512518517.89,34003,2.69,73262.0,-9.73,-10.41,-10.45,0,*5D
1512518519.11,34004,2.69,73274.3,-9.73,-10.45,-10.45,0,*5E
1512518520.34,34005,2.69,73278.0,-9.73,-10.53,-10.57,0,*5B
1512518521.57,34006,2.69,73286.0,-9.73,-10.57,-10.57,0,*5C
1512518522.8,34007,2.69,73212.8,-9.73,-10.57,-10.57,0,*5D
1512518524.0,34008,2.69,73130.8,-9.71,-10.53,-10.49,0,*5B
1512518525.23,34009,2.69,73198.0,-9.71,-10.41,-10.49,0,*59
1512518526.48,34010,2.69,73198.8,-9.73,-10.45,-10.41,0,*5F
1512518527.71,34011,2.69,73226.3,-9.71,-10.53,-10.41,0,*5B
1512518528.94,34012,2.75,73240.3,-9.73,-10.57,-10.53,0,*5D
1512518530.17,34013,2.75,73204.8,-9.73,-10.57,-10.57,0,*58
1512518531.4,34014,2.69,73154.8,-9.73,-10.57,-10.57,0,*5F
1512518532.61,34015,2.69,73160.8,-9.75,-10.57,-10.57,0,*58
1512518533.87,34016,2.69,73154.8,-9.73,-10.63,-10.57,0,*5A
1512518535.15,34017,2.69,73152.8,-9.73,-10.63,-10.63,0,*5C
1512518536.44,34018,2.69,73172.5,-9.73,-10.63,-10.63,0,*53
1512518537.7,34019,2.69,73138.3,-9.75,-10.63,-10.63,0,*54
1512518538.98,34020,2.69,73128.5,-9.73,-10.71,-10.63,0,*5B
1512518540.27,34021,2.69,73132.0,-9.73,-10.63,-10.63,0,*59
1512518541.55,34022,2.69,73138.0,-9.73,-10.63,-10.71,0,*59
1512518542.83,34023,2.69,73140.3,-9.73,-10.63,-10.63,0,*5B
1512518544.12,34024,2.69,73156.3,-9.73,-10.63,-10.63,0,*5C
1512518545.38,34025,2.69,73162.0,-9.75,-10.63,-10.63,0,*5B
1512518546.64,34026,2.69,73144.0,-9.75,-10.63,-10.63,0,*58
1512518547.93,34027,2.69,73142.3,-9.73,-10.63,-10.63,0,*5F
1512518549.19,34028,2.69,73158.5,-9.75,-10.63,-10.63,0,*56
1512518550.45,34029,2.69,73168.8,-9.75,-10.63,-10.63,0,*57
1512518551.71,34030,2.69,73162.0,-9.75,-10.63,-10.63,0,*5F
1512518552.94,34031,2.69,73188.3,-9.75,-10.63,-10.57,0,*59
1512518554.2,34032,2.69,73186.8,-9.73,-10.63,-10.57,0,*5C
1512518555.4,34033,2.69,73184.8,-9.75,-10.53,-10.53,0,*5C
1512518556.61,34034,2.69,73176.3,-9.75,-10.57,-10.57,0,*5B
1512518557.85,34035,2.69,73164.0,-9.77,-10.57,-10.57,0,*58
1512518559.08,34036,2.69,73164.8,-9.73,-10.57,-10.53,0,*5B
1512518560.27,34037,2.69,73184.3,-9.75,-10.53,-10.53,0,*58
1512518561.48,34038,2.69,73198.0,-9.75,-10.53,-10.53,0,*57
1512518562.68,34039,2.69,73170.8,-9.75,-10.53,-10.53,0,*56
1512518563.87,34040,2.69,73126.8,-9.75,-10.53,-10.53,0,*58
1512518565.07,34041,2.69,73142.0,-9.75,-10.53,-10.53,0,*59
1512518566.27,34042,2.69,73178.8,-9.75,-10.53,-10.57,0,*5E
1512518567.47,34043,2.69,73190.5,-9.75,-10.53,-10.45,0,*5C
1512518568.7,34044,2.69,73178.8,-9.73,-10.53,-10.45,0,*5D
1512518569.9,34045,2.69,73162.5,-9.75,-10.53,-10.45,0,*5A
1512518571.13,34046,2.69,73144.0,-9.75,-10.53,-10.41,0,*5D
1512518572.33,34047,2.69,73154.8,-9.75,-10.53,-10.45,0,*58
1512518573.56,34048,2.69,73214.0,-9.73,-10.45,-10.45,0,*56
1512518574.78,34049,2.69,73196.5,-9.73,-10.45,-10.45,0,*57
1512518576.04,34050,2.69,73206.8,-9.73,-10.41,-10.45,0,*5B
1512518577.27,34051,2.69,73194.3,-9.73,-10.53,-10.45,0,*59
1512518578.49,34052,2.69,73200.8,-9.73,-10.45,-10.45,0,*5D
1512518579.78,34053,2.75,73184.3,-9.73,-10.41,-10.41,0,*5C
1512518581.04,34054,2.69,73174.0,-9.75,-10.41,-10.41,0,*5D
1512518582.3,34055,2.69,73198.8,-9.73,-10.45,-10.41,0,*5E
1512518583.53,34056,2.69,73234.3,-9.75,-10.41,-10.45,0,*5B
1512518584.73,34057,2.69,73176.5,-9.75,-10.45,-10.45,0,*5E
1512518585.99,34058,2.75,73194.0,-9.73,-10.45,-10.41,0,*53
1512518587.19,34059,2.69,73188.3,-9.75,-10.45,-10.53,0,*57
1512518588.42,34060,2.69,73184.5,-9.73,-10.45,-10.45,0,*5C
1512518589.65,34061,2.69,73188.0,-9.73,-10.53,-10.45,0,*5A
1512518590.85,34062,2.69,73186.0,-9.75,-10.45,-10.45,0,*58
1512518592.07,34063,2.69,73180.3,-9.73,-10.53,-10.45,0,*58
1512518593.3,34064,2.69,73182.0,-9.73,-10.53,-10.53,0,*58
1512518594.53,34065,2.69,73180.5,-9.73,-10.57,-10.53,0,*5D
1512518595.76,34066,2.69,73190.8,-9.73,-10.57,-10.57,0,*5A
1512518596.99,34067,2.69,73182.3,-9.73,-10.57,-10.57,0,*5B
1512518598.25,34068,2.69,73180.8,-9.73,-10.57,-10.63,0,*53
1512518599.53,34069,2.69,73188.3,-9.73,-10.63,-10.63,0,*55
1512518600.82,34070,2.69,73190.8,-9.73,-10.63,-10.63,0,*5D
1512518602.08,34071,2.69,73182.0,-9.75,-10.63,-10.63,0,*5A
1512518603.36,34072,2.69,73182.0,-9.73,-10.63,-10.71,0,*5C
1512518604.62,34073,2.69,73204.0,-9.75,-10.71,-10.71,0,*58
1512518605.88,34074,2.69,73180.5,-9.75,-10.71,-10.63,0,*5C
1512518607.14,34075,2.69,73196.5,-9.75,-10.63,-10.63,0,*5E
1512518608.39,34076,2.69,73236.0,-9.73,-10.57,-10.71,0,*5F
1512518609.65,34077,2.69,73200.5,-9.75,-10.63,-10.71,0,*5F
1512518610.91,34078,2.69,73196.8,-9.75,-10.63,-10.63,0,*53
1512518612.17,34079,2.69,73224.5,-9.75,-10.63,-10.63,0,*52
1512518613.39,34080,2.69,73224.5,-9.73,-10.53,-10.57,0,*56
1512518614.6,34081,2.69,73172.3,-9.75,-10.53,-10.53,0,*55
1512518615.8,34082,2.69,73194.5,-9.75,-10.53,-10.57,0,*52
1512518617.0,34083,2.69,73218.0,-9.75,-10.53,-10.45,0,*50
1512518618.2,34084,2.69,73238.3,-9.75,-10.57,-10.45,0,*53
1512518619.41,34085,2.69,73254.0,-9.75,-10.57,-10.53,0,*55
1512518620.61,34086,2.75,73256.0,-9.75,-10.57,-10.57,0,*52
1512518621.84,34087,2.69,73268.3,-9.73,-10.53,-10.53,0,*55
1512518623.06,34088,2.69,73302.0,-9.73,-10.53,-10.53,0,*5A
1512518624.26,34089,2.69,73298.0,-9.75,-10.53,-10.57,0,*59
1512518625.47,34090,2.69,73264.8,-9.75,-10.57,-10.53,0,*51
1512518626.67,34091,2.69,73214.5,-9.75,-10.53,-10.53,0,*54
1512518627.87,34092,2.69,73192.3,-9.75,-10.57,-10.53,0,*53
1512518629.08,34093,2.69,73162.8,-9.75,-10.57,-10.57,0,*56
1512518630.28,34094,2.69,73190.0,-9.75,-10.53,-10.57,0,*55
1512518631.48,34095,2.69,73212.8,-9.75,-10.45,-10.53,0,*57
1512518632.69,34096,2.69,73228.0,-9.75,-10.45,-10.45,0,*53
1512518633.95,34097,2.69,73214.0,-9.75,-10.41,-10.41,0,*52
1512518635.18,34098,2.69,73168.0,-9.75,-10.41,-10.31,0,*5A
1512518636.44,34099,2.69,73160.0,-9.75,-10.41,-10.41,0,*5C
1512518637.71,34100,2.69,73148.8,-9.75,-10.41,-10.41,0,*5D
1512518638.96,34101,2.69,73158.3,-9.73,-10.45,-10.41,0,*5E
1512518640.2,34102,2.69,73186.8,-9.75,-10.41,-10.45,0,*5B
1512518641.42,34103,2.69,73180.5,-9.73,-10.53,-10.45,0,*5F
1512518642.64,34104,2.69,73196.0,-9.73,-10.53,-10.45,0,*58
1512518643.88,34105,2.69,73222.5,-9.73,-10.57,-10.57,0,*5E
1512518645.08,34106,2.69,73220.3,-9.75,-10.57,-10.57,0,*5B
1512518646.29,34107,2.69,73210.8,-9.75,-10.57,-10.57,0,*5A
1512518647.52,34108,2.69,73192.8,-9.73,-10.57,-10.53,0,*57
1512518648.72,34109,2.69,73198.0,-9.75,-10.53,-10.57,0,*50
1512518649.94,34110,2.69,73202.5,-9.73,-10.53,-10.57,0,*5E
1512518651.17,34111,2.69,73202.5,-9.73,-10.53,-10.53,0,*5B
1512518652.39,34112,2.69,73188.8,-9.73,-10.53,-10.53,0,*58
1512518653.62,34113,2.69,73180.5,-9.73,-10.57,-10.53,0,*5D
1512518654.85,34114,2.69,73246.8,-9.73,-10.57,-10.53,0,*5A
1512518656.06,34115,2.69,73218.3,-9.75,-10.57,-10.57,0,*59
1512518657.26,34116,2.69,73162.5,-9.75,-10.57,-10.53,0,*5E
1512518658.49,34117,2.69,73160.3,-9.73,-10.57,-10.57,0,*5D
1512518659.72,34118,2.69,73182.5,-9.73,-10.53,-10.53,0,*52
1512518660.95,34119,2.69,73186.0,-9.73,-10.57,-10.45,0,*50
1512518662.18,34120,2.69,73214.5,-9.73,-10.57,-10.53,0,*5D
1512518663.38,34121,2.69,73238.5,-9.75,-10.53,-10.53,0,*5E
1512518664.61,34122,2.69,73242.0,-9.73,-10.57,-10.53,0,*5F
1512518665.84,34123,2.69,73168.0,-9.73,-10.57,-10.57,0,*5A
1512518667.07,34124,2.69,73206.8,-9.73,-10.57,-10.57,0,*5D
1512518668.35,34125,2.69,73222.8,-9.73,-10.71,-10.63,0,*5F
1512518669.61,34126,2.69,73224.3,-9.75,-10.63,-10.63,0,*59
1512518670.9,34127,2.69,73248.3,-9.73,-10.63,-10.63,0,*5E
1512518672.16,34128,2.69,73232.8,-9.73,-10.63,-10.57,0,*56
1512518673.42,34129,2.69,73242.3,-9.73,-10.63,-10.57,0,*57
1512518674.65,34130,2.69,73198.3,-9.75,-10.63,-10.57,0,*59
1512518675.91,34131,2.69,73200.0,-9.73,-10.63,-10.57,0,*5E
1512518677.17,34132,2.69,73200.0,-9.73,-10.63,-10.57,0,*5D
1512518678.43,34133,2.69,73196.5,-9.73,-10.63,-10.57,0,*5C
1512518679.66,34134,2.75,73202.8,-9.75,-10.63,-10.57,0,*5D
1512518680.87,34135,2.69,73202.0,-9.75,-10.57,-10.57,0,*5B
1512518682.07,34136,2.75,73204.3,-9.75,-10.57,-10.57,0,*58
1512518683.28,34137,2.69,73208.0,-9.75,-10.57,-10.57,0,*59
1512518684.51,34138,2.69,73208.8,-9.73,-10.57,-10.57,0,*50
1512518685.71,34139,2.69,73206.8,-9.75,-10.57,-10.57,0,*57
1512518686.92,34140,2.69,73222.8,-9.75,-10.57,-10.57,0,*59
1512518688.13,34141,2.69,73214.8,-9.75,-10.57,-10.57,0,*58
1512518689.36,34142,2.69,73198.3,-9.75,-10.63,-10.57,0,*5C
1512518690.62,34143,2.69,73198.0,-9.73,-10.63,-10.57,0,*5B
1512518691.86,34144,2.69,73206.0,-9.75,-10.63,-10.57,0,*5A
1512518693.11,34145,2.69,73204.8,-9.75,-10.71,-10.71,0,*5C
1512518694.4,34146,2.69,73212.8,-9.73,-10.63,-10.63,0,*59
1512518695.66,34147,2.69,73190.3,-9.75,-10.63,-10.63,0,*5E
1512518696.95,34148,2.69,73196.3,-9.77,-10.75,-10.75,0,*53
1512518698.24,34149,2.69,73168.0,-9.77,-10.67,-10.79,0,*5D
1512518699.53,34150,2.69,73160.3,-9.77,-10.67,-10.79,0,*55
1512518700.79,34151,2.69,73190.0,-9.79,-10.75,-10.79,0,*59
1512518702.08,34152,2.69,73216.5,-9.77,-10.67,-10.75,0,*5B
1512518703.38,34153,2.69,73214.3,-9.77,-10.67,-10.75,0,*5A
1512518704.68,34154,2.69,73212.3,-9.77,-10.67,-10.67,0,*5E
1512518705.94,34155,2.69,73246.0,-9.79,-10.75,-10.67,0,*52
1512518707.2,34156,2.69,73232.5,-9.79,-10.75,-10.75,0,*52
1512518708.48,34157,2.69,73224.8,-9.77,-10.75,-10.75,0,*5D
1512518709.78,34158,2.69,73228.8,-9.77,-10.75,-10.67,0,*51
1512518711.07,34159,2.69,73208.3,-9.77,-10.67,-10.67,0,*53
1512518712.37,34160,2.69,73188.5,-9.77,-10.67,-10.75,0,*5A
1512518713.66,34161,2.69,73208.0,-9.77,-10.75,-10.67,0,*5B
1512518714.95,34162,2.69,73214.0,-9.77,-10.75,-10.67,0,*58
1512518716.25,34163,2.69,73198.3,-9.77,-10.67,-10.75,0,*59
1512518717.51,34164,2.69,73182.5,-9.79,-10.67,-10.67,0,*53
1512518718.8,34165,2.69,73160.5,-9.77,-10.75,-10.75,0,*5C
1512518720.06,34166,2.69,73190.5,-9.79,-10.75,-10.67,0,*52
1512518721.36,34167,2.69,73206.3,-9.77,-10.67,-10.75,0,*5D
1512518722.63,34168,2.69,73194.3,-9.79,-10.67,-10.67,0,*5F
1512518723.9,34169,2.69,73190.8,-9.79,-10.67,-10.67,0,*5E
1512518725.16,34170,2.69,73178.0,-9.79,-10.67,-10.67,0,*56
1512518726.42,34171,2.69,73164.5,-9.81,-10.79,-10.71,0,*58
1512518727.68,34172,2.69,73188.0,-9.79,-10.67,-10.67,0,*54
1512518728.95,34173,2.69,73178.0,-9.79,-10.67,-10.67,0,*55
1512518730.22,34174,2.69,73180.5,-9.79,-10.67,-10.67,0,*52
1512518731.52,34175,2.69,73186.8,-9.77,-10.67,-10.67,0,*5D
1512518732.79,34176,2.69,73192.0,-9.79,-10.67,-10.67,0,*50
1512518734.05,34177,2.69,73200.0,-9.79,-10.67,-10.67,0,*51
1512518735.32,34178,2.69,73204.3,-9.79,-10.67,-10.63,0,*5A
1512518736.55,34179,2.69,73214.5,-9.79,-10.63,-10.57,0,*58
1512518737.82,34180,2.69,73182.0,-9.79,-10.63,-10.63,0,*59
1512518739.08,34181,2.69,73194.5,-9.79,-10.63,-10.63,0,*58
1512518740.34,34182,2.69,73206.5,-9.79,-10.63,-10.63,0,*5B
1512518741.57,34183,2.69,73172.0,-9.79,-10.57,-10.63,0,*5D
1512518742.84,34184,2.69,73164.0,-9.79,-10.63,-10.63,0,*5D
1512518744.13,34185,2.69,73194.0,-9.77,-10.63,-10.67,0,*56
1512518745.39,34186,2.69,73202.0,-9.79,-10.63,-10.67,0,*5B
1512518746.65,34187,2.69,73212.0,-9.81,-10.71,-10.71,0,*59
1512518747.92,34188,2.69,73196.3,-9.79,-10.67,-10.67,0,*51
1512518749.19,34189,2.69,73176.3,-9.79,-10.67,-10.67,0,*50
1512518750.46,34190,2.69,73172.5,-9.79,-10.67,-10.67,0,*58
1512518751.72,34191,2.69,73180.0,-9.79,-10.67,-10.75,0,*5A
1512518752.98,34192,2.69,73166.3,-9.79,-10.67,-10.75,0,*59
1512518754.25,34193,2.69,73120.0,-9.79,-10.67,-10.67,0,*5B
1512518755.51,34194,2.69,73118.5,-9.81,-10.79,-10.79,0,*5B
1512518756.76,34195,2.69,73116.5,-9.81,-10.71,-10.71,0,*5A
1512518758.02,34196,2.69,73124.8,-9.81,-10.71,-10.71,0,*59
1512518759.27,34197,2.69,73130.0,-9.81,-10.71,-10.71,0,*58
1512518760.53,34198,2.69,73114.3,-9.81,-10.71,-10.79,0,*5F
1512518761.79,34199,2.69,73150.8,-9.81,-10.71,-10.71,0,*56
1512518763.04,34200,2.69,73144.0,-9.81,-10.71,-10.71,0,*55
1512518764.3,34201,2.69,73184.8,-9.81,-10.71,-10.71,0,*54
1512518765.59,34202,2.69,73176.3,-9.83,-10.71,-10.67,0,*52
1512518766.85,34203,2.69,73178.0,-9.81,-10.67,-10.63,0,*52
1512518768.08,34204,2.69,73178.3,-9.79,-10.63,-10.57,0,*51
1512518769.34,34205,2.69,73182.0,-9.81,-10.63,-10.63,0,*50
1512518770.6,34206,2.69,73186.0,-9.81,-10.63,-10.63,0,*53
1512518771.83,34207,2.69,73200.8,-9.81,-10.53,-10.63,0,*51
1512518773.06,34208,2.69,73210.0,-9.81,-10.53,-10.67,0,*5A
1512518774.26,34209,2.69,73216.5,-9.81,-10.53,-10.53,0,*5C
1512518775.49,34210,2.69,73226.5,-9.81,-10.63,-10.53,0,*57
1512518776.72,34211,2.69,73226.3,-9.81,-10.63,-10.53,0,*56
1512518777.92,34212,2.69,73228.0,-9.81,-10.53,-10.53,0,*56
1512518779.12,34213,2.69,73204.0,-9.81,-10.53,-10.53,0,*57
1512518780.33,34214,2.69,73154.3,-9.79,-10.57,-10.49,0,*58
1512518781.53,34215,2.69,73180.8,-9.79,-10.57,-10.49,0,*59
1512518782.74,34216,2.69,73188.0,-9.79,-10.45,-10.57,0,*56
1512518783.95,34217,2.69,73172.8,-9.79,-10.57,-10.45,0,*57
1512518785.15,34218,2.69,73162.8,-9.79,-10.49,-10.49,0,*5B
1512518786.35,34219,2.69,73166.0,-9.79,-10.49,-10.45,0,*56
1512518787.56,34220,2.69,73172.0,-9.79,-10.45,-10.45,0,*50
1512518788.76,34221,2.69,73194.3,-9.79,-10.45,-10.45,0,*51
1512518789.97,34222,2.69,73210.5,-9.79,-10.49,-10.45,0,*5E
1512518791.17,34223,2.69,73172.3,-9.79,-10.49,-10.49,0,*53
1512518792.41,34224,2.69,73142.5,-9.77,-10.57,-10.57,0,*5A
1512518793.65,34225,2.69,73132.5,-9.77,-10.57,-10.57,0,*5B
1512518794.88,34226,2.69,73178.8,-9.77,-10.57,-10.57,0,*58
1512518796.09,34227,2.69,73168.3,-9.79,-10.49,-10.57,0,*58
1512518797.32,34228,2.69,73168.5,-9.79,-10.57,-10.63,0,*5F
1512518798.59,34229,2.69,73180.3,-9.77,-10.63,-10.57,0,*50
1512518799.79,34230,2.69,73182.0,-9.79,-10.57,-10.57,0,*51
1512518801.03,34231,2.69,73182.3,-9.79,-10.57,-10.63,0,*57
1512518802.29,34232,2.69,73154.3,-9.79,-10.63,-10.63,0,*53
1512518803.55,34233,2.69,73166.8,-9.79,-10.63,-10.63,0,*52
1512518804.81,34234,2.69,73178.0,-9.79,-10.63,-10.63,0,*55
1512518806.1,34235,2.69,73170.3,-9.77,-10.63,-10.63,0,*5A
1512518807.39,34236,2.69,73166.5,-9.77,-10.63,-10.63,0,*59
1512518808.66,34237,2.69,73082.3,-9.81,-10.67,-10.67,0,*51
1512518809.92,34238,2.69,73144.3,-9.79,-10.63,-10.63,0,*59
1512518811.18,34239,2.69,73122.0,-9.79,-10.63,-10.63,0,*58
1512518812.45,34240,2.69,73112.8,-9.79,-10.63,-10.63,0,*56
1512518813.71,34241,2.69,73128.3,-9.79,-10.63,-10.63,0,*57
1512518815.0,34242,2.69,73130.3,-9.77,-10.63,-10.63,0,*5A
1512518816.27,34243,2.69,73138.3,-9.79,-10.67,-10.67,0,*55
1512518817.54,34244,2.69,73170.8,-9.79,-10.67,-10.67,0,*52
1512518818.8,34245,2.69,73164.0,-9.79,-10.67,-10.67,0,*53
1512518820.06,34246,2.69,73154.0,-9.81,-10.71,-10.71,0,*57
1512518821.32,34247,2.69,73152.8,-9.81,-10.67,-10.71,0,*51
1512518822.58,34248,2.69,73142.5,-9.81,-10.67,-10.71,0,*5E
1512518823.85,34249,2.69,73154.8,-9.81,-10.67,-10.67,0,*58
1512518825.11,34250,2.69,73150.3,-9.81,-10.67,-10.63,0,*54
1512518826.34,34251,2.69,73128.3,-9.79,-10.57,-10.63,0,*51
1512518827.55,34252,2.69,73128.0,-9.79,-10.57,-10.57,0,*55
1512518828.76,34253,2.69,73140.5,-9.79,-10.57,-10.57,0,*54
1512518829.96,34254,2.69,73156.3,-9.79,-10.57,-10.57,0,*53
1512518831.2,34255,2.69,73172.5,-9.77,-10.57,-10.57,0,*5C
1512518832.43,34256,2.69,73178.3,-9.81,-10.53,-10.63,0,*55
1512518833.69,34257,2.69,73178.5,-9.81,-10.63,-10.63,0,*57
1512518834.95,34258,2.69,73180.8,-9.81,-10.63,-10.63,0,*58
1512518836.15,34259,2.69,73194.8,-9.79,-10.57,-10.57,0,*5E
1512518837.35,34260,2.69,73210.3,-9.81,-10.53,-10.53,0,*53
1512518838.59,34261,2.69,73218.3,-9.77,-10.49,-10.49,0,*5B
1512518839.79,34262,2.69,73240.8,-9.79,-10.45,-10.49,0,*5A
1512518841.0,34263,2.69,73238.3,-9.79,-10.49,-10.49,0,*57
1512518842.2,34264,2.69,73222.3,-9.79,-10.49,-10.49,0,*50
1512518843.41,34265,2.69,73210.8,-9.79,-10.57,-10.49,0,*5E
1512518844.64,34266,2.69,73236.5,-9.77,-10.45,-10.45,0,*5C
1512518845.85,34267,2.69,73234.0,-9.79,-10.49,-10.45,0,*5F
1512518847.05,34268,2.69,73238.5,-9.79,-10.49,-10.49,0,*5C
1512518848.26,34269,2.69,73184.3,-9.79,-10.45,-10.49,0,*51
1512518849.46,34270,2.69,73168.8,-9.79,-10.45,-10.49,0,*59
1512518850.67,34271,2.69,73178.5,-9.79,-10.49,-10.45,0,*58
1512518851.87,34272,2.69,73164.5,-9.79,-10.45,-10.45,0,*57
1512518853.08,34273,2.69,73170.5,-9.79,-10.45,-10.49,0,*5A
1512518854.28,34274,2.69,73210.0,-9.79,-10.49,-10.49,0,*51
1512518855.52,34275,2.69,73192.5,-9.77,-10.57,-10.49,0,*51
1512518856.76,34276,2.69,73220.8,-9.77,-10.57,-10.49,0,*52
1512518857.96,34277,2.69,73246.3,-9.79,-10.57,-10.49,0,*5D
1512518859.2,34278,2.69,73198.0,-9.77,-10.57,-10.57,0,*53
1512518860.46,34279,2.69,73184.3,-9.79,-10.63,-10.63,0,*5C
1512518861.72,34280,2.69,73192.3,-9.79,-10.63,-10.63,0,*5A
1512518862.98,34281,2.69,73212.3,-9.79,-10.63,-10.63,0,*5B
1512518864.24,34282,2.69,73150.3,-9.79,-10.63,-10.63,0,*58
1512518865.54,34283,2.69,73174.5,-9.77,-10.63,-10.63,0,*57
1512518866.8,34284,2.69,73180.5,-9.79,-10.63,-10.63,0,*5E
1512518868.06,34285,2.69,73186.8,-9.79,-10.63,-10.63,0,*5F
1512518869.27,34286,2.69,73234.8,-9.79,-10.57,-10.57,0,*5C
1512518870.53,34287,2.69,73220.5,-9.77,-10.63,-10.57,0,*54
1512518871.77,34288,2.69,73188.0,-9.79,-10.63,-10.57,0,*55
1512518873.0,34289,2.69,73164.5,-9.79,-10.57,-10.63,0,*54
1512518874.26,34290,2.69,73156.8,-9.79,-10.63,-10.63,0,*5B
1512518875.52,34291,2.69,73118.8,-9.79,-10.63,-10.63,0,*5A
1512518876.76,34292,2.69,73140.0,-9.79,-10.63,-10.57,0,*5E
1512518877.99,34293,2.69,73146.8,-9.79,-10.63,-10.57,0,*5F
1512518879.2,34294,2.69,73160.5,-9.79,-10.57,-10.57,0,*5F
1512518880.41,34295,2.69,73166.0,-9.79,-10.57,-10.57,0,*5E
1512518881.67,34296,2.69,73174.5,-9.79,-10.63,-10.63,0,*5D
1512518882.93,34297,2.69,73144.5,-9.79,-10.63,-10.63,0,*5C
1512518884.19,34298,2.69,73110.8,-9.79,-10.63,-10.63,0,*53
1512518885.46,34299,2.69,73094.3,-9.79,-10.67,-10.63,0,*56
1512518886.72,34300,2.69,73072.5,-9.79,-10.67,-10.67,0,*53
1512518887.99,34301,2.69,73062.8,-9.79,-10.67,-10.67,0,*52
1512518889.26,34302,2.69,73102.5,-9.79,-10.63,-10.67,0,*55
1512518890.52,34303,2.69,73118.0,-9.79,-10.63,-10.63,0,*50
1512518891.78,34304,2.69,73106.0,-9.79,-10.63,-10.63,0,*57
1512518893.02,34305,2.69,73112.3,-9.79,-10.63,-10.57,0,*51
1512518894.25,34306,2.69,73136.3,-9.79,-10.63,-10.57,0,*52
1512518895.46,34307,2.69,73116.0,-9.79,-10.57,-10.57,0,*54
1512518896.72,34308,2.69,73132.8,-9.79,-10.63,-10.63,0,*5B
1512518897.96,34309,2.69,73118.5,-9.79,-10.63,-10.57,0,*5D
1512518899.22,34310,2.69,73148.8,-9.79,-10.63,-10.63,0,*52
1512518900.45,34311,2.69,73158.0,-9.79,-10.57,-10.63,0,*54
1512518901.66,34312,2.69,73178.0,-9.79,-10.57,-10.49,0,*5F
1512518902.92,34313,2.69,73182.0,-9.79,-10.63,-10.63,0,*51
1512518904.15,34314,2.69,73158.8,-9.79,-10.57,-10.63,0,*51